owner,sensor,date,latitude,longitude,vertical_datum,sea_water_practical_salinity,qcFlag 
SCCF RECON,ioos:station:SCCF:18:1,2017-01-01T00:00:00Z,26.6955,-81.8138,1.6,6.83,1111122 
SCCF RECON,ioos:station:SCCF:18:1,2017-01-01T01:00:00Z,26.6955,-81.8138,1.59,6.7,1111122 
SCCF RECON,ioos:station:SCCF:18:1,2017-01-01T02:00:00Z,26.6955,-81.8138,1.54,6.55,1111122 
SCCF RECON,ioos:station:SCCF:18:1,2017-01-01T03:00:00Z,26.6955,-81.8138,1.48,6.26,1111122 
SCCF RECON,ioos:station:SCCF:18:1,2017-01-01T04:00:00Z,26.6955,-81.8138,1.45,6.33,1111122 
SCCF RECON,ioos:station:SCCF:18:1,2017-01-01T05:00:00Z,26.6955,-81.8138,1.441,6.24,1111122 
SCCF RECON,ioos:station:SCCF:18:1,2017-01-01T06:00:00Z,26.6955,-81.8138,1.51,6.54,1111122 
SCCF RECON,ioos:station:SCCF:18:1,2017-01-01T07:00:00Z,26.6955,-81.8138,1.59,6.64,1111122 
SCCF RECON,ioos:station:SCCF:18:1,2017-01-01T08:00:00Z,26.6955,-81.8138,1.66,6.56,1111122 
SCCF RECON,ioos:station:SCCF:18:1,2017-01-01T09:00:00Z,26.6955,-81.8138,1.698,6.84,1111122 
SCCF RECON,ioos:station:SCCF:18:1,2017-01-01T10:00:00Z,26.6955,-81.8138,1.73,6.8,1111122 
SCCF RECON,ioos:station:SCCF:18:1,2017-01-01T11:00:00Z,26.6955,-81.8138,1.73,6.69,1111122 
SCCF RECON,ioos:station:SCCF:18:1,2017-01-01T12:00:00Z,26.6955,-81.8138,1.66,6.31,1111122 
SCCF RECON,ioos:station:SCCF:18:1,2017-01-01T13:00:00Z,26.6955,-81.8138,1.59,6.24,1111122 
SCCF RECON,ioos:station:SCCF:18:1,2017-01-01T14:00:00Z,26.6955,-81.8138,1.532,6.26,1111122 
SCCF RECON,ioos:station:SCCF:18:1,2017-01-01T15:00:00Z,26.6955,-81.8138,1.497,6.15,1111122 
SCCF RECON,ioos:station:SCCF:18:1,2017-01-01T16:00:00Z,26.6955,-81.8138,1.45,6.04,1111122 
SCCF RECON,ioos:station:SCCF:18:1,2017-01-01T17:00:00Z,26.6955,-81.8138,1.39,6.03,1111122 
SCCF RECON,ioos:station:SCCF:18:1,2017-01-01T18:00:00Z,26.6955,-81.8138,1.35,6.01,1111122 
SCCF RECON,ioos:station:SCCF:18:1,2017-01-01T19:00:00Z,26.6955,-81.8138,1.405,6.01,1111122 
SCCF RECON,ioos:station:SCCF:18:1,2017-01-01T20:00:00Z,26.6955,-81.8138,1.488,6.32,1111122 
SCCF RECON,ioos:station:SCCF:18:1,2017-01-01T21:00:00Z,26.6955,-81.8138,1.561,6.38,1111122 
SCCF RECON,ioos:station:SCCF:18:1,2017-01-01T22:00:00Z,26.6955,-81.8138,1.616,6.39,1111122 
SCCF RECON,ioos:station:SCCF:18:1,2017-01-01T23:00:00Z,26.6955,-81.8138,1.67,6.62,1111122 
SCCF RECON,ioos:station:SCCF:18:1,2017-01-02T00:00:00Z,26.6955,-81.8138,1.71,6.74,1111122 
SCCF RECON,ioos:station:SCCF:18:1,2017-01-02T01:00:00Z,26.6955,-81.8138,1.72,6.73,1111122 
SCCF RECON,ioos:station:SCCF:18:1,2017-01-02T02:00:00Z,26.6955,-81.8138,1.68,6.35,1111122 
SCCF RECON,ioos:station:SCCF:18:1,2017-01-02T03:00:00Z,26.6955,-81.8138,1.625,6.03,1111122 
SCCF RECON,ioos:station:SCCF:18:1,2017-01-02T04:00:00Z,26.6955,-81.8138,1.575,5.96,1111122 
SCCF RECON,ioos:station:SCCF:18:1,2017-01-02T05:00:00Z,26.6955,-81.8138,1.55,5.9,1111122 
SCCF RECON,ioos:station:SCCF:18:1,2017-01-02T06:00:00Z,26.6955,-81.8138,1.56,5.71,1111122 
SCCF RECON,ioos:station:SCCF:18:1,2017-01-02T07:00:00Z,26.6955,-81.8138,1.63,6.46,1111122 
SCCF RECON,ioos:station:SCCF:18:1,2017-01-02T08:00:00Z,26.6955,-81.8138,1.72,6.3,1111122 
SCCF RECON,ioos:station:SCCF:18:1,2017-01-02T09:00:00Z,26.6955,-81.8138,1.77,6.39,1111122 
SCCF RECON,ioos:station:SCCF:18:1,2017-01-02T10:00:00Z,26.6955,-81.8138,1.783,6.4,1111122 
SCCF RECON,ioos:station:SCCF:18:1,2017-01-02T11:00:00Z,26.6955,-81.8138,1.79,6.03,1111122 
SCCF RECON,ioos:station:SCCF:18:1,2017-01-02T12:00:00Z,26.6955,-81.8138,1.73,5.67,1111122 
SCCF RECON,ioos:station:SCCF:18:1,2017-01-02T13:00:00Z,26.6955,-81.8138,1.65,5.71,1111122 
SCCF RECON,ioos:station:SCCF:18:1,2017-01-02T14:00:00Z,26.6955,-81.8138,1.58,5.65,1111122 
SCCF RECON,ioos:station:SCCF:18:1,2017-01-02T15:00:00Z,26.6955,-81.8138,1.55,5.57,1111122 
SCCF RECON,ioos:station:SCCF:18:1,2017-01-02T16:00:00Z,26.6955,-81.8138,1.493,5.4,1111122 
SCCF RECON,ioos:station:SCCF:18:1,2017-01-02T17:00:00Z,26.6955,-81.8138,1.429,5.39,1111122 
SCCF RECON,ioos:station:SCCF:18:1,2017-01-02T18:00:00Z,26.6955,-81.8138,1.36,5.33,1111122 
SCCF RECON,ioos:station:SCCF:18:1,2017-01-02T19:00:00Z,26.6955,-81.8138,1.323,5.24,1111122 
SCCF RECON,ioos:station:SCCF:18:1,2017-01-02T20:00:00Z,26.6955,-81.8138,1.36,5.28,1111122 
SCCF RECON,ioos:station:SCCF:18:1,2017-01-02T21:00:00Z,26.6955,-81.8138,1.439,5.48,1111122 
SCCF RECON,ioos:station:SCCF:18:1,2017-01-02T22:00:00Z,26.6955,-81.8138,1.521,5.6,1111122 
SCCF RECON,ioos:station:SCCF:18:1,2017-01-02T23:00:00Z,26.6955,-81.8138,1.56,5.6,1111122 
SCCF RECON,ioos:station:SCCF:18:1,2017-01-03T00:00:00Z,26.6955,-81.8138,1.58,5.83,1111122 
SCCF RECON,ioos:station:SCCF:18:1,2017-01-03T01:00:00Z,26.6955,-81.8138,1.6,5.87,1111122 
SCCF RECON,ioos:station:SCCF:18:1,2017-01-03T02:00:00Z,26.6955,-81.8138,1.58,5.62,1111122 
SCCF RECON,ioos:station:SCCF:18:1,2017-01-03T03:00:00Z,26.6955,-81.8138,1.52,5.36,1111122 
SCCF RECON,ioos:station:SCCF:18:1,2017-01-03T04:00:00Z,26.6955,-81.8138,1.444,5.36,1111122 
SCCF RECON,ioos:station:SCCF:18:1,2017-01-03T05:00:00Z,26.6955,-81.8138,1.42,5.19,1111122 
SCCF RECON,ioos:station:SCCF:18:1,2017-01-03T06:00:00Z,26.6955,-81.8138,1.41,5.11,1111122 
SCCF RECON,ioos:station:SCCF:18:1,2017-01-03T07:00:00Z,26.6955,-81.8138,1.44,5.27,1111122 
SCCF RECON,ioos:station:SCCF:18:1,2017-01-03T08:00:00Z,26.6955,-81.8138,1.5,5.52,1111122 
SCCF RECON,ioos:station:SCCF:18:1,2017-01-03T09:00:00Z,26.6955,-81.8138,1.57,5.31,1111122 
SCCF RECON,ioos:station:SCCF:18:1,2017-01-03T10:00:00Z,26.6955,-81.8138,1.601,5.47,1111122 
SCCF RECON,ioos:station:SCCF:18:1,2017-01-03T11:00:00Z,26.6955,-81.8138,1.621,5.43,1111122 
SCCF RECON,ioos:station:SCCF:18:1,2017-01-03T12:00:00Z,26.6955,-81.8138,1.65,5.23,1111122 
SCCF RECON,ioos:station:SCCF:18:1,2017-01-03T13:00:00Z,26.6955,-81.8138,1.642,5.21,1111122 
SCCF RECON,ioos:station:SCCF:18:1,2017-01-03T14:00:00Z,26.6955,-81.8138,1.58,5.01,1111122 
SCCF RECON,ioos:station:SCCF:18:1,2017-01-03T15:00:00Z,26.6955,-81.8138,1.51,4.98,1111122 
SCCF RECON,ioos:station:SCCF:18:1,2017-01-03T16:00:00Z,26.6955,-81.8138,1.46,5.45,1111122 
SCCF RECON,ioos:station:SCCF:18:1,2017-01-03T17:00:00Z,26.6955,-81.8138,1.422,4.92,1111122 
SCCF RECON,ioos:station:SCCF:18:1,2017-01-03T18:00:00Z,26.6955,-81.8138,1.369,4.91,1111122 
SCCF RECON,ioos:station:SCCF:18:1,2017-01-03T19:00:00Z,26.6955,-81.8138,1.3,4.93,1111122 
SCCF RECON,ioos:station:SCCF:18:1,2017-01-03T20:00:00Z,26.6955,-81.8138,1.299,4.8,1111122 
SCCF RECON,ioos:station:SCCF:18:1,2017-01-03T21:00:00Z,26.6955,-81.8138,1.377,5.15,1111122 
SCCF RECON,ioos:station:SCCF:18:1,2017-01-03T22:00:00Z,26.6955,-81.8138,1.45,5.37,1111122 
SCCF RECON,ioos:station:SCCF:18:1,2017-01-03T23:00:00Z,26.6955,-81.8138,1.498,5.29,1111122 
SCCF RECON,ioos:station:SCCF:18:1,2017-01-04T00:00:00Z,26.6955,-81.8138,1.53,5.5,1111122 
SCCF RECON,ioos:station:SCCF:18:1,2017-01-04T01:00:00Z,26.6955,-81.8138,1.58,5.6,1111122 
SCCF RECON,ioos:station:SCCF:18:1,2017-01-04T02:00:00Z,26.6955,-81.8138,1.59,5.66,1111122 
SCCF RECON,ioos:station:SCCF:18:1,2017-01-04T03:00:00Z,26.6955,-81.8138,1.54,5.44,1111122 
SCCF RECON,ioos:station:SCCF:18:1,2017-01-04T04:00:00Z,26.6955,-81.8138,1.48,5.2,1111122 
SCCF RECON,ioos:station:SCCF:18:1,2017-01-04T05:00:00Z,26.6955,-81.8138,1.43,4.95,1111122 
SCCF RECON,ioos:station:SCCF:18:1,2017-01-04T06:00:00Z,26.6955,-81.8138,1.4,5.05,1111122 
SCCF RECON,ioos:station:SCCF:18:1,2017-01-04T07:00:00Z,26.6955,-81.8138,1.38,5.13,1111122 
SCCF RECON,ioos:station:SCCF:18:1,2017-01-04T08:00:00Z,26.6955,-81.8138,1.43,4.98,1111122 
SCCF RECON,ioos:station:SCCF:18:1,2017-01-04T09:00:00Z,26.6955,-81.8138,1.5,5.37,1111122 
SCCF RECON,ioos:station:SCCF:18:1,2017-01-04T10:00:00Z,26.6955,-81.8138,1.56,5.45,1111122 
SCCF RECON,ioos:station:SCCF:18:1,2017-01-04T11:00:00Z,26.6955,-81.8138,1.6,5.55,1111122 
SCCF RECON,ioos:station:SCCF:18:1,2017-01-04T12:00:00Z,26.6955,-81.8138,1.66,5.85,1111122 
SCCF RECON,ioos:station:SCCF:18:1,2017-01-04T13:00:00Z,26.6955,-81.8138,1.704,6.08,1111122 
SCCF RECON,ioos:station:SCCF:18:1,2017-01-04T14:00:00Z,26.6955,-81.8138,1.681,5.89,1111122 
SCCF RECON,ioos:station:SCCF:18:1,2017-01-04T15:00:00Z,26.6955,-81.8138,1.61,5.34,1111122 
SCCF RECON,ioos:station:SCCF:18:1,2017-01-04T16:00:00Z,26.6955,-81.8138,1.537,5.16,1111122 
SCCF RECON,ioos:station:SCCF:18:1,2017-01-04T17:00:00Z,26.6955,-81.8138,1.48,5.1,1111122 
SCCF RECON,ioos:station:SCCF:18:1,2017-01-04T18:00:00Z,26.6955,-81.8138,1.43,5.16,1111122 
SCCF RECON,ioos:station:SCCF:18:1,2017-01-04T19:00:00Z,26.6955,-81.8138,1.39,5.06,1111122 
SCCF RECON,ioos:station:SCCF:18:1,2017-01-04T20:00:00Z,26.6955,-81.8138,1.34,4.85,1111122 
SCCF RECON,ioos:station:SCCF:18:1,2017-01-04T21:00:00Z,26.6955,-81.8138,1.37,5.02,1111122 
SCCF RECON,ioos:station:SCCF:18:1,2017-01-04T22:00:00Z,26.6955,-81.8138,1.45,5.31,1111122 
SCCF RECON,ioos:station:SCCF:18:1,2017-01-04T23:00:00Z,26.6955,-81.8138,1.51,5.61,1111122 
SCCF RECON,ioos:station:SCCF:18:1,2017-01-05T00:00:00Z,26.6955,-81.8138,1.56,5.53,1111122 
SCCF RECON,ioos:station:SCCF:18:1,2017-01-05T01:00:00Z,26.6955,-81.8138,1.59,5.55,1111122 
SCCF RECON,ioos:station:SCCF:18:1,2017-01-05T02:00:00Z,26.6955,-81.8138,1.61,5.41,1111122 
SCCF RECON,ioos:station:SCCF:18:1,2017-01-05T03:00:00Z,26.6955,-81.8138,1.57,5.45,1111122 
SCCF RECON,ioos:station:SCCF:18:1,2017-01-05T04:00:00Z,26.6955,-81.8138,1.5,5.14,1111122 
SCCF RECON,ioos:station:SCCF:18:1,2017-01-05T05:00:00Z,26.6955,-81.8138,1.433,5.08,1111122 
SCCF RECON,ioos:station:SCCF:18:1,2017-01-05T06:00:00Z,26.6955,-81.8138,1.399,4.86,1111122 
SCCF RECON,ioos:station:SCCF:18:1,2017-01-05T07:00:00Z,26.6955,-81.8138,1.352,4.85,1111122 
SCCF RECON,ioos:station:SCCF:18:1,2017-01-05T08:00:00Z,26.6955,-81.8138,1.308,4.82,1111122 
SCCF RECON,ioos:station:SCCF:18:1,2017-01-05T09:00:00Z,26.6955,-81.8138,1.28,4.8,1111122 
SCCF RECON,ioos:station:SCCF:18:1,2017-01-05T10:00:00Z,26.6955,-81.8138,1.302,4.9,1111122 
SCCF RECON,ioos:station:SCCF:18:1,2017-01-05T11:00:00Z,26.6955,-81.8138,1.38,5.43,1111122 
SCCF RECON,ioos:station:SCCF:18:1,2017-01-05T12:00:00Z,26.6955,-81.8138,1.454,5.05,1111122 
SCCF RECON,ioos:station:SCCF:18:1,2017-01-05T13:00:00Z,26.6955,-81.8138,1.487,5.3,1111122 
SCCF RECON,ioos:station:SCCF:18:1,2017-01-05T14:00:00Z,26.6955,-81.8138,1.5,5.39,1111122 
SCCF RECON,ioos:station:SCCF:18:1,2017-01-05T15:00:00Z,26.6955,-81.8138,1.48,4.93,1111122 
SCCF RECON,ioos:station:SCCF:18:1,2017-01-05T16:00:00Z,26.6955,-81.8138,1.414,4.79,1111122 
SCCF RECON,ioos:station:SCCF:18:1,2017-01-05T17:00:00Z,26.6955,-81.8138,1.35,4.74,1111122 
SCCF RECON,ioos:station:SCCF:18:1,2017-01-05T18:00:00Z,26.6955,-81.8138,1.309,4.78,1111122 
SCCF RECON,ioos:station:SCCF:18:1,2017-01-05T19:00:00Z,26.6955,-81.8138,1.29,4.8,1111122 
SCCF RECON,ioos:station:SCCF:18:1,2017-01-05T20:00:00Z,26.6955,-81.8138,1.266,4.92,1111122 
SCCF RECON,ioos:station:SCCF:18:1,2017-01-05T21:00:00Z,26.6955,-81.8138,1.263,4.77,1111122 
SCCF RECON,ioos:station:SCCF:18:1,2017-01-05T22:00:00Z,26.6955,-81.8138,1.314,4.94,1111122 
SCCF RECON,ioos:station:SCCF:18:1,2017-01-05T23:00:00Z,26.6955,-81.8138,1.39,5.09,1111122 
SCCF RECON,ioos:station:SCCF:18:1,2017-01-06T00:00:00Z,26.6955,-81.8138,1.459,5.23,1111122 
SCCF RECON,ioos:station:SCCF:18:1,2017-01-06T01:00:00Z,26.6955,-81.8138,1.505,5.24,1111122 
SCCF RECON,ioos:station:SCCF:18:1,2017-01-06T02:00:00Z,26.6955,-81.8138,1.55,5.36,1111122 
SCCF RECON,ioos:station:SCCF:18:1,2017-01-06T03:00:00Z,26.6955,-81.8138,1.59,5.59,1111122 
SCCF RECON,ioos:station:SCCF:18:1,2017-01-06T04:00:00Z,26.6955,-81.8138,1.574,5.12,1111122 
SCCF RECON,ioos:station:SCCF:18:1,2017-01-06T05:00:00Z,26.6955,-81.8138,1.501,4.96,1111122 
SCCF RECON,ioos:station:SCCF:18:1,2017-01-06T06:00:00Z,26.6955,-81.8138,1.43,4.83,1111122 
SCCF RECON,ioos:station:SCCF:18:1,2017-01-06T07:00:00Z,26.6955,-81.8138,1.39,4.8,1111122 
SCCF RECON,ioos:station:SCCF:18:1,2017-01-06T08:00:00Z,26.6955,-81.8138,1.357,4.77,1111122 
SCCF RECON,ioos:station:SCCF:18:1,2017-01-06T09:00:00Z,26.6955,-81.8138,1.31,4.73,1111122 
SCCF RECON,ioos:station:SCCF:18:1,2017-01-06T10:00:00Z,26.6955,-81.8138,1.265,4.7,1111122 
SCCF RECON,ioos:station:SCCF:18:1,2017-01-06T11:00:00Z,26.6955,-81.8138,1.28,4.76,1111122 
SCCF RECON,ioos:station:SCCF:18:1,2017-01-06T12:00:00Z,26.6955,-81.8138,1.35,5.1,1111122 
SCCF RECON,ioos:station:SCCF:18:1,2017-01-06T13:00:00Z,26.6955,-81.8138,1.44,4.93,1111122 
SCCF RECON,ioos:station:SCCF:18:1,2017-01-06T14:00:00Z,26.6955,-81.8138,1.48,5.07,1111122 
SCCF RECON,ioos:station:SCCF:18:1,2017-01-06T15:00:00Z,26.6955,-81.8138,1.51,5.12,1111122 
SCCF RECON,ioos:station:SCCF:18:1,2017-01-06T16:00:00Z,26.6955,-81.8138,1.526,5.06,1111122 
SCCF RECON,ioos:station:SCCF:18:1,2017-01-06T17:00:00Z,26.6955,-81.8138,1.495,4.91,1111122 
SCCF RECON,ioos:station:SCCF:18:1,2017-01-06T18:00:00Z,26.6955,-81.8138,1.43,4.7,1111122 
SCCF RECON,ioos:station:SCCF:18:1,2017-01-06T19:00:00Z,26.6955,-81.8138,1.37,4.73,1111122 
SCCF RECON,ioos:station:SCCF:18:1,2017-01-06T20:00:00Z,26.6955,-81.8138,1.333,4.69,1111122 
SCCF RECON,ioos:station:SCCF:18:1,2017-01-06T21:00:00Z,26.6955,-81.8138,1.316,4.79,1111122 
SCCF RECON,ioos:station:SCCF:18:1,2017-01-06T22:00:00Z,26.6955,-81.8138,1.33,4.81,1111122 
SCCF RECON,ioos:station:SCCF:18:1,2017-01-06T23:00:00Z,26.6955,-81.8138,1.402,4.97,1111122 
SCCF RECON,ioos:station:SCCF:18:1,2017-01-07T00:00:00Z,26.6955,-81.8138,1.48,4.85,1111122 
SCCF RECON,ioos:station:SCCF:18:1,2017-01-07T01:00:00Z,26.6955,-81.8138,1.55,4.96,1111122 
SCCF RECON,ioos:station:SCCF:18:1,2017-01-07T02:00:00Z,26.6955,-81.8138,1.607,5.17,1111122 
SCCF RECON,ioos:station:SCCF:18:1,2017-01-07T03:00:00Z,26.6955,-81.8138,1.67,5.28,1111122 
SCCF RECON,ioos:station:SCCF:18:1,2017-01-07T04:00:00Z,26.6955,-81.8138,1.725,5.33,1111122 
SCCF RECON,ioos:station:SCCF:18:1,2017-01-07T05:00:00Z,26.6955,-81.8138,1.724,5.6,1111122 
SCCF RECON,ioos:station:SCCF:18:1,2017-01-07T06:00:00Z,26.6955,-81.8138,1.68,5.02,1111122 
SCCF RECON,ioos:station:SCCF:18:1,2017-01-07T07:00:00Z,26.6955,-81.8138,1.61,4.78,1111122 
SCCF RECON,ioos:station:SCCF:18:1,2017-01-07T08:00:00Z,26.6955,-81.8138,1.554,4.76,1111122 
SCCF RECON,ioos:station:SCCF:18:1,2017-01-07T09:00:00Z,26.6955,-81.8138,1.51,4.82,1111122 
SCCF RECON,ioos:station:SCCF:18:1,2017-01-07T10:00:00Z,26.6955,-81.8138,1.47,4.69,1111122 
SCCF RECON,ioos:station:SCCF:18:1,2017-01-07T11:00:00Z,26.6955,-81.8138,1.45,4.83,1111122 
SCCF RECON,ioos:station:SCCF:18:1,2017-01-07T12:00:00Z,26.6955,-81.8138,1.48,4.86,1111122 
SCCF RECON,ioos:station:SCCF:18:1,2017-01-07T13:00:00Z,26.6955,-81.8138,1.56,4.88,1111122 
SCCF RECON,ioos:station:SCCF:18:1,2017-01-07T14:00:00Z,26.6955,-81.8138,1.645,4.99,1111122 
SCCF RECON,ioos:station:SCCF:18:1,2017-01-07T15:00:00Z,26.6955,-81.8138,1.691,5.07,1111122 
SCCF RECON,ioos:station:SCCF:18:1,2017-01-07T16:00:00Z,26.6955,-81.8138,1.728,5.04,1111122 
SCCF RECON,ioos:station:SCCF:18:1,2017-01-07T17:00:00Z,26.6955,-81.8138,1.73,5.22,1111122 
SCCF RECON,ioos:station:SCCF:18:1,2017-01-07T18:00:00Z,26.6955,-81.8138,1.723,5.21,1111122 
SCCF RECON,ioos:station:SCCF:18:1,2017-01-07T19:00:00Z,26.6955,-81.8138,1.699,5.02,1111122 
SCCF RECON,ioos:station:SCCF:18:1,2017-01-07T20:00:00Z,26.6955,-81.8138,1.635,4.95,1111122 
SCCF RECON,ioos:station:SCCF:18:1,2017-01-07T21:00:00Z,26.6955,-81.8138,1.574,4.67,1111122 
SCCF RECON,ioos:station:SCCF:18:1,2017-01-07T22:00:00Z,26.6955,-81.8138,1.523,4.72,1111122 
SCCF RECON,ioos:station:SCCF:18:1,2017-01-07T23:00:00Z,26.6955,-81.8138,1.481,4.67,1111122 
SCCF RECON,ioos:station:SCCF:18:1,2017-01-08T00:00:00Z,26.6955,-81.8138,1.445,4.59,1111122 
SCCF RECON,ioos:station:SCCF:18:1,2017-01-08T01:00:00Z,26.6955,-81.8138,1.42,4.49,1111122 
SCCF RECON,ioos:station:SCCF:18:1,2017-01-08T02:00:00Z,26.6955,-81.8138,1.38,4.51,1111122 
SCCF RECON,ioos:station:SCCF:18:1,2017-01-08T03:00:00Z,26.6955,-81.8138,1.359,4.41,1111122 
SCCF RECON,ioos:station:SCCF:18:1,2017-01-08T04:00:00Z,26.6955,-81.8138,1.34,4.19,1111122 
SCCF RECON,ioos:station:SCCF:18:1,2017-01-08T05:00:00Z,26.6955,-81.8138,1.31,4.22,1111122 
SCCF RECON,ioos:station:SCCF:18:1,2017-01-08T06:00:00Z,26.6955,-81.8138,1.27,4.16,1111122 
SCCF RECON,ioos:station:SCCF:18:1,2017-01-08T07:00:00Z,26.6955,-81.8138,1.25,4.0,1111122 
SCCF RECON,ioos:station:SCCF:18:1,2017-01-08T08:00:00Z,26.6955,-81.8138,1.23,4.11,1111122 
SCCF RECON,ioos:station:SCCF:18:1,2017-01-08T09:00:00Z,26.6955,-81.8138,1.19,4.28,1111122 
SCCF RECON,ioos:station:SCCF:18:1,2017-01-08T10:00:00Z,26.6955,-81.8138,1.14,4.08,1111122 
SCCF RECON,ioos:station:SCCF:18:1,2017-01-08T11:00:00Z,26.6955,-81.8138,1.108,4.0,1111122 
SCCF RECON,ioos:station:SCCF:18:1,2017-01-08T12:00:00Z,26.6955,-81.8138,1.073,3.87,1111122 
SCCF RECON,ioos:station:SCCF:18:1,2017-01-08T13:00:00Z,26.6955,-81.8138,1.03,3.83,1111122 
SCCF RECON,ioos:station:SCCF:18:1,2017-01-08T14:00:00Z,26.6955,-81.8138,0.994,3.89,1111122 
SCCF RECON,ioos:station:SCCF:18:1,2017-01-08T15:00:00Z,26.6955,-81.8138,0.956,3.87,1111122 
SCCF RECON,ioos:station:SCCF:18:1,2017-01-08T16:00:00Z,26.6955,-81.8138,0.92,3.83,1111122 
SCCF RECON,ioos:station:SCCF:18:1,2017-01-08T17:00:00Z,26.6955,-81.8138,0.909,3.81,1111122 
SCCF RECON,ioos:station:SCCF:18:1,2017-01-08T18:00:00Z,26.6955,-81.8138,0.907,3.9,1111122 
SCCF RECON,ioos:station:SCCF:18:1,2017-01-08T19:00:00Z,26.6955,-81.8138,0.91,3.88,1111122 
SCCF RECON,ioos:station:SCCF:18:1,2017-01-08T20:00:00Z,26.6955,-81.8138,0.914,3.82,1111122 
SCCF RECON,ioos:station:SCCF:18:1,2017-01-08T21:00:00Z,26.6955,-81.8138,0.932,4.0,1111122 
SCCF RECON,ioos:station:SCCF:18:1,2017-01-08T22:00:00Z,26.6955,-81.8138,0.953,4.14,1111122 
SCCF RECON,ioos:station:SCCF:18:1,2017-01-08T23:00:00Z,26.6955,-81.8138,0.998,4.09,1111122 
SCCF RECON,ioos:station:SCCF:18:1,2017-01-09T00:00:00Z,26.6955,-81.8138,1.032,4.29,1111122 
SCCF RECON,ioos:station:SCCF:18:1,2017-01-09T01:00:00Z,26.6955,-81.8138,1.1,4.38,1111122 
SCCF RECON,ioos:station:SCCF:18:1,2017-01-09T02:00:00Z,26.6955,-81.8138,1.162,4.43,1111122 
SCCF RECON,ioos:station:SCCF:18:1,2017-01-09T03:00:00Z,26.6955,-81.8138,1.213,4.52,1111122 
SCCF RECON,ioos:station:SCCF:18:1,2017-01-09T04:00:00Z,26.6955,-81.8138,1.261,4.68,1111122 
SCCF RECON,ioos:station:SCCF:18:1,2017-01-09T05:00:00Z,26.6955,-81.8138,1.314,4.72,1111122 
SCCF RECON,ioos:station:SCCF:18:1,2017-01-09T06:00:00Z,26.6955,-81.8138,1.34,4.77,1111122 
SCCF RECON,ioos:station:SCCF:18:1,2017-01-09T07:00:00Z,26.6955,-81.8138,1.31,4.55,1111122 
SCCF RECON,ioos:station:SCCF:18:1,2017-01-09T08:00:00Z,26.6955,-81.8138,1.25,3.92,1111122 
SCCF RECON,ioos:station:SCCF:18:1,2017-01-09T09:00:00Z,26.6955,-81.8138,1.183,3.96,1111122 
SCCF RECON,ioos:station:SCCF:18:1,2017-01-09T10:00:00Z,26.6955,-81.8138,1.15,3.9,1111122 
SCCF RECON,ioos:station:SCCF:18:1,2017-01-09T11:00:00Z,26.6955,-81.8138,1.112,3.88,1111122 
SCCF RECON,ioos:station:SCCF:18:1,2017-01-09T12:00:00Z,26.6955,-81.8138,1.082,3.93,1111122 
SCCF RECON,ioos:station:SCCF:18:1,2017-01-09T13:00:00Z,26.6955,-81.8138,1.06,3.96,1111122 
SCCF RECON,ioos:station:SCCF:18:1,2017-01-09T14:00:00Z,26.6955,-81.8138,1.03,3.99,1111122 
SCCF RECON,ioos:station:SCCF:18:1,2017-01-09T15:00:00Z,26.6955,-81.8138,1.025,3.98,1111122 
SCCF RECON,ioos:station:SCCF:18:1,2017-01-09T16:00:00Z,26.6955,-81.8138,1.062,4.01,1111122 
SCCF RECON,ioos:station:SCCF:18:1,2017-01-09T17:00:00Z,26.6955,-81.8138,1.116,4.03,1111122 
SCCF RECON,ioos:station:SCCF:18:1,2017-01-09T18:00:00Z,26.6955,-81.8138,1.155,3.99,1111122 
SCCF RECON,ioos:station:SCCF:18:1,2017-01-09T19:00:00Z,26.6955,-81.8138,1.18,4.1,1111122 
SCCF RECON,ioos:station:SCCF:18:1,2017-01-09T20:00:00Z,26.6955,-81.8138,1.22,3.97,1111122 
SCCF RECON,ioos:station:SCCF:18:1,2017-01-09T21:00:00Z,26.6955,-81.8138,1.239,3.95,1111122 
SCCF RECON,ioos:station:SCCF:18:1,2017-01-09T22:00:00Z,26.6955,-81.8138,1.236,3.99,1111122 
SCCF RECON,ioos:station:SCCF:18:1,2017-01-09T23:00:00Z,26.6955,-81.8138,1.24,3.97,1111122 
SCCF RECON,ioos:station:SCCF:18:1,2017-01-10T00:00:00Z,26.6955,-81.8138,1.27,3.98,1111122 
SCCF RECON,ioos:station:SCCF:18:1,2017-01-10T01:00:00Z,26.6955,-81.8138,1.34,4.33,1111122 
SCCF RECON,ioos:station:SCCF:18:1,2017-01-10T02:00:00Z,26.6955,-81.8138,1.41,4.31,1111122 
SCCF RECON,ioos:station:SCCF:18:1,2017-01-10T03:00:00Z,26.6955,-81.8138,1.45,4.11,1111122 
SCCF RECON,ioos:station:SCCF:18:1,2017-01-10T04:00:00Z,26.6955,-81.8138,1.49,4.38,1111122 
SCCF RECON,ioos:station:SCCF:18:1,2017-01-10T05:00:00Z,26.6955,-81.8138,1.55,4.6,1111122 
SCCF RECON,ioos:station:SCCF:18:1,2017-01-10T06:00:00Z,26.6955,-81.8138,1.6,4.59,1111122 
SCCF RECON,ioos:station:SCCF:18:1,2017-01-10T07:00:00Z,26.6955,-81.8138,1.61,4.19,1111122 
SCCF RECON,ioos:station:SCCF:18:1,2017-01-10T08:00:00Z,26.6955,-81.8138,1.54,3.84,1111122 
SCCF RECON,ioos:station:SCCF:18:1,2017-01-10T09:00:00Z,26.6955,-81.8138,1.45,3.9,1111122 
SCCF RECON,ioos:station:SCCF:18:1,2017-01-10T10:00:00Z,26.6955,-81.8138,1.398,3.75,1111122 
SCCF RECON,ioos:station:SCCF:18:1,2017-01-10T11:00:00Z,26.6955,-81.8138,1.35,3.74,1111122 
SCCF RECON,ioos:station:SCCF:18:1,2017-01-10T12:00:00Z,26.6955,-81.8138,1.306,3.74,1111122 
SCCF RECON,ioos:station:SCCF:18:1,2017-01-10T13:00:00Z,26.6955,-81.8138,1.265,3.71,1111122 
SCCF RECON,ioos:station:SCCF:18:1,2017-01-10T14:00:00Z,26.6955,-81.8138,1.23,3.69,1111122 
SCCF RECON,ioos:station:SCCF:18:1,2017-01-10T15:00:00Z,26.6955,-81.8138,1.207,3.66,1111122 
SCCF RECON,ioos:station:SCCF:18:1,2017-01-10T16:00:00Z,26.6955,-81.8138,1.24,3.63,1111122 
SCCF RECON,ioos:station:SCCF:18:1,2017-01-10T17:00:00Z,26.6955,-81.8138,1.298,4.04,1111122 
SCCF RECON,ioos:station:SCCF:18:1,2017-01-10T18:00:00Z,26.6955,-81.8138,1.36,4.07,1111122 
SCCF RECON,ioos:station:SCCF:18:1,2017-01-10T19:00:00Z,26.6955,-81.8138,1.41,4.14,1111122 
SCCF RECON,ioos:station:SCCF:18:1,2017-01-10T20:00:00Z,26.6955,-81.8138,1.46,4.01,1111122 
SCCF RECON,ioos:station:SCCF:18:1,2017-01-10T21:00:00Z,26.6955,-81.8138,1.49,3.93,1111122 
SCCF RECON,ioos:station:SCCF:18:1,2017-01-10T22:00:00Z,26.6955,-81.8138,1.5,3.67,1111122 
SCCF RECON,ioos:station:SCCF:18:1,2017-01-10T23:00:00Z,26.6955,-81.8138,1.49,3.88,1111122 
SCCF RECON,ioos:station:SCCF:18:1,2017-01-11T00:00:00Z,26.6955,-81.8138,1.499,3.94,1111122 
SCCF RECON,ioos:station:SCCF:18:1,2017-01-11T01:00:00Z,26.6955,-81.8138,1.52,3.82,1111122 
SCCF RECON,ioos:station:SCCF:18:1,2017-01-11T02:00:00Z,26.6955,-81.8138,1.58,4.21,1111122 
SCCF RECON,ioos:station:SCCF:18:1,2017-01-11T03:00:00Z,26.6955,-81.8138,1.65,4.21,1111122 
SCCF RECON,ioos:station:SCCF:18:1,2017-01-11T04:00:00Z,26.6955,-81.8138,1.72,4.59,1111122 
SCCF RECON,ioos:station:SCCF:18:1,2017-01-11T05:00:00Z,26.6955,-81.8138,1.773,4.66,1111122 
SCCF RECON,ioos:station:SCCF:18:1,2017-01-11T06:00:00Z,26.6955,-81.8138,1.82,4.8,1111122 
SCCF RECON,ioos:station:SCCF:18:1,2017-01-11T07:00:00Z,26.6955,-81.8138,1.878,4.96,1111122 
SCCF RECON,ioos:station:SCCF:18:1,2017-01-11T08:00:00Z,26.6955,-81.8138,1.88,4.67,1111122 
SCCF RECON,ioos:station:SCCF:18:1,2017-01-11T09:00:00Z,26.6955,-81.8138,1.781,3.77,1111122 
SCCF RECON,ioos:station:SCCF:18:1,2017-01-11T10:00:00Z,26.6955,-81.8138,1.68,4.07,1111122 
SCCF RECON,ioos:station:SCCF:18:1,2017-01-11T11:00:00Z,26.6955,-81.8138,1.61,4.14,1111122 
SCCF RECON,ioos:station:SCCF:18:1,2017-01-11T12:00:00Z,26.6955,-81.8138,1.56,3.74,1111122 
SCCF RECON,ioos:station:SCCF:18:1,2017-01-11T13:00:00Z,26.6955,-81.8138,1.518,3.69,1111122 
SCCF RECON,ioos:station:SCCF:18:1,2017-01-11T14:00:00Z,26.6955,-81.8138,1.45,3.61,1111122 
SCCF RECON,ioos:station:SCCF:18:1,2017-01-11T15:00:00Z,26.6955,-81.8138,1.39,3.62,1111122 
SCCF RECON,ioos:station:SCCF:18:1,2017-01-11T16:00:00Z,26.6955,-81.8138,1.35,3.64,1111122 
SCCF RECON,ioos:station:SCCF:18:1,2017-01-11T17:00:00Z,26.6955,-81.8138,1.35,3.65,1111122 
SCCF RECON,ioos:station:SCCF:18:1,2017-01-11T18:00:00Z,26.6955,-81.8138,1.4,4.02,1111122 
SCCF RECON,ioos:station:SCCF:18:1,2017-01-11T19:00:00Z,26.6955,-81.8138,1.47,4.32,1111122 
SCCF RECON,ioos:station:SCCF:18:1,2017-01-11T20:00:00Z,26.6955,-81.8138,1.52,3.92,1111122 
SCCF RECON,ioos:station:SCCF:18:1,2017-01-11T21:00:00Z,26.6955,-81.8138,1.53,4.17,1111122 